Date String (YYYY-MM-DD hh:mm:ss) UTC,Instrument flags,Ambient pressure (hPa),Sample flow (lpm),Bypass flow (lpm),Sample temperature (°C),Ambient temperature (°C),ASC tube jacket temperature (°C),LED temperature (°C),Box temperature (°C),Sample RH (%),Span deviation,Mass concentration (μg/m³),Mass concentration (μg/m³),Mass concentration (μg/m³)
DateTimeUTC,F1_M11,P_M11,Q1_M11,Q2_M11,T1_M11,T2_M11,T3_M11,T4_M11,T5_M11,U1_M11,ZSPAN_M11,X0_M11,X2_M11,X1_M11
2022-10-08 01:00:00,,0836.9,5.00,0.00,26.6,25.1,00.0,35.3,28.5,23.6,-001.1,0015.42,0009.64,0008.85
2022-10-08 01:01:00,,0836.9,5.00,0.00,26.6,25.1,00.0,35.3,28.4,23.6,-001.1,0015.74,0009.69,0008.85
2022-10-08 01:02:00,,0836.9,5.00,0.00,26.6,25.1,00.0,35.3,28.4,23.6,-001.3,0015.81,0009.71,0008.85
2022-10-08 01:03:00,,0836.9,5.00,0.00,26.6,25.1,00.0,35.3,28.5,23.7,-001.5,0015.22,0009.68,0008.83
2022-10-08 01:04:00,,0837.0,5.00,0.00,26.6,25.2,00.0,35.3,28.5,23.8,-001.4,0015.13,0009.63,0008.82
2022-10-08 01:05:00,,0837.0,5.00,0.00,26.6,25.2,00.0,35.3,28.5,23.9,-001.5,0015.21,0009.65,0008.82
2022-10-08 01:06:00,,0837.0,5.00,0.00,26.6,25.2,00.0,35.3,28.5,23.7,-001.4,0014.35,0009.64,0008.82
2022-10-08 01:07:00,,0837.0,5.00,0.00,26.6,25.2,00.0,35.3,28.5,23.7,-001.6,0014.14,0009.63,0008.82
2022-10-08 01:08:00,,0837.0,5.01,0.00,26.6,25.2,00.0,35.3,28.5,23.6,-001.6,0014.14,0009.64,0008.82
2022-10-08 01:09:00,,0837.0,5.00,0.00,26.6,25.2,00.0,35.3,28.5,23.5,-001.6,0014.25,0009.60,0008.81
2022-10-08 01:10:00,,0837.0,5.00,0.00,26.6,25.3,00.0,35.3,28.5,23.5,-001.3,0014.48,0009.53,0008.76
2022-10-08 01:11:00,,0837.0,5.00,0.00,26.6,25.3,00.0,35.3,28.5,23.3,-001.3,0014.50,0009.47,0008.72
2022-10-08 01:12:00,,0837.0,4.99,0.00,26.6,25.3,00.0,35.4,28.5,23.4,-001.3,0014.33,0009.44,0008.69
2022-10-08 01:13:00,,0837.0,5.01,0.00,26.6,25.2,00.0,35.4,28.5,23.5,-001.1,0014.42,0009.40,0008.65
2022-10-08 01:14:00,,0837.0,5.00,0.00,26.6,25.2,00.0,35.4,28.5,23.5,-000.7,0014.56,0009.41,0008.63
2022-10-08 01:15:00,,0837.0,5.00,0.00,26.6,25.2,00.0,35.4,28.5,23.5,-001.0,0014.28,0009.41,0008.63
2022-10-08 01:16:00,,0837.0,5.00,0.00,26.6,25.2,00.0,35.4,28.5,23.5,-000.9,0014.22,0009.42,0008.65
2022-10-08 01:17:00,,0837.0,4.99,0.00,26.6,25.2,00.0,35.4,28.5,23.4,-000.9,0014.25,0009.41,0008.64
2022-10-08 01:18:00,,0837.0,5.01,0.00,26.6,25.2,00.0,35.4,28.5,23.2,-001.0,0014.40,0009.43,0008.64
2022-10-08 01:19:00,,0837.0,5.00,0.00,26.6,25.2,00.0,35.4,28.5,23.2,-001.2,0014.74,0009.48,0008.63
2022-10-08 01:20:00,,0837.0,5.00,0.00,26.7,25.2,00.0,35.4,28.5,23.3,-001.3,0014.84,0009.54,0008.64
2022-10-08 01:21:00,,0837.0,4.99,0.00,26.7,25.2,00.0,35.4,28.6,23.2,-001.4,0014.67,0009.59,0008.68
2022-10-08 01:22:00,,0837.0,5.01,0.00,26.7,25.2,00.0,35.4,28.5,23.2,-001.3,0014.81,0009.63,0008.72
2022-10-08 01:23:00,,0837.0,5.00,0.00,26.6,25.2,00.0,35.4,28.6,23.1,-001.4,0015.08,0009.63,0008.76
2022-10-08 01:24:00,,0837.0,5.00,0.00,26.6,25.2,00.0,35.4,28.5,23.1,-001.5,0015.83,0009.65,0008.78
2022-10-08 01:25:00,,0836.9,4.99,0.00,26.7,25.2,00.0,35.4,28.5,23.1,-001.7,0015.62,0009.62,0008.78
2022-10-08 01:26:00,,0836.9,5.00,0.00,26.7,25.3,00.0,35.4,28.5,23.1,-001.4,0015.66,0009.62,0008.78
2022-10-08 01:27:00,,0836.9,5.00,0.00,26.7,25.3,00.0,35.4,28.5,23.2,-001.3,0015.66,0009.57,0008.74
2022-10-08 01:28:00,,0836.9,5.01,0.00,26.7,25.3,00.0,35.4,28.5,23.2,-001.2,0015.53,0009.52,0008.71
2022-10-08 01:29:00,,0836.9,5.00,0.00,26.7,25.2,00.0,35.4,28.5,23.2,-001.3,0015.40,0009.47,0008.67
2022-10-08 01:30:00,,0836.9,4.99,0.00,26.6,25.2,00.0,35.4,28.5,23.0,-001.3,0015.10,0009.37,0008.63
2022-10-08 01:31:00,,0836.9,5.00,0.00,26.6,25.1,00.0,35.4,28.5,23.1,-001.2,0015.08,0009.27,0008.59
2022-10-08 01:32:00,,0836.9,5.01,0.00,26.6,25.1,00.0,35.4,28.5,23.1,-001.4,0015.40,0009.19,0008.55
2022-10-08 01:33:00,,0836.9,4.99,0.00,26.6,25.0,00.0,35.4,28.4,23.1,-001.3,0015.05,0009.11,0008.49
2022-10-08 01:34:00,,0836.9,5.00,0.00,26.6,24.9,00.0,35.4,28.4,23.2,-001.3,0014.89,0009.08,0008.45
2022-10-08 01:35:00,,0836.9,5.01,0.00,26.6,25.0,00.0,35.4,28.4,23.2,-001.1,0013.69,0009.03,0008.41
2022-10-08 01:36:00,,0836.9,4.99,0.00,26.6,24.9,00.0,35.4,28.4,23.1,-001.1,0013.60,0008.99,0008.39
2022-10-08 01:37:00,,0836.8,5.00,0.00,26.6,24.9,00.0,35.4,28.4,23.0,-001.2,0014.21,0008.92,0008.36
2022-10-08 01:38:00,,0836.8,5.01,0.00,26.6,24.9,00.0,35.4,28.4,23.1,-001.1,0013.98,0008.88,0008.33
2022-10-08 01:39:00,,0836.8,5.01,0.00,26.5,24.9,00.0,35.4,28.4,23.0,-001.3,0014.00,0008.85,0008.31
2022-10-08 01:40:00,,0836.9,4.99,0.00,26.5,24.8,00.0,35.4,28.3,23.0,-001.4,0013.97,0008.82,0008.29
2022-10-08 01:41:00,,0836.8,5.00,0.00,26.5,24.7,00.0,35.3,28.3,22.9,-001.3,0013.87,0008.80,0008.30
2022-10-08 01:42:00,,0836.9,5.00,0.00,26.5,24.7,00.0,35.3,28.3,22.9,-001.2,0013.76,0008.82,0008.31
2022-10-08 01:43:00,,0836.9,5.00,0.00,26.4,24.6,00.0,35.3,28.2,22.9,-000.9,0013.52,0008.83,0008.31
2022-10-08 01:44:00,,0836.9,5.01,0.00,26.4,24.6,00.0,35.3,28.2,22.9,-001.2,0013.58,0008.84,0008.32
2022-10-08 01:45:00,,0836.9,4.99,0.00,26.4,24.6,00.0,35.3,28.2,23.0,-001.1,0013.47,0008.83,0008.31
2022-10-08 01:46:00,,0836.9,5.00,0.00,26.4,24.7,00.0,35.3,28.2,23.0,-001.0,0013.64,0008.87,0008.33
2022-10-08 01:47:00,,0836.8,5.01,0.00,26.4,24.7,00.0,35.3,28.2,22.9,-000.7,0013.62,0008.87,0008.33
2022-10-08 01:48:00,,0836.8,4.99,0.00,26.4,24.6,00.0,35.3,28.1,22.8,-000.7,0013.10,0008.92,0008.35
2022-10-08 01:49:00,,0836.9,5.00,0.00,26.3,24.5,00.0,35.2,28.1,22.9,-000.8,0013.03,0008.94,0008.38
2022-10-08 01:50:00,,0836.8,5.00,0.00,26.3,24.5,00.0,35.2,28.0,22.9,-000.8,0013.02,0008.99,0008.44
2022-10-08 01:51:00,,0836.8,4.99,0.00,26.3,24.4,00.0,35.2,28.0,22.9,-000.4,0012.97,0009.05,0008.50
2022-10-08 01:52:00,,0836.8,5.00,0.00,26.2,24.4,00.0,35.2,28.0,22.9,-000.3,0012.90,0009.10,0008.55
2022-10-08 01:53:00,,0836.8,5.00,0.00,26.2,24.5,00.0,35.2,28.0,22.9,-000.5,0012.94,0009.12,0008.56
2022-10-08 01:54:00,,0836.8,4.99,0.00,26.2,24.6,00.0,35.2,28.0,22.9,-000.5,0012.54,0009.15,0008.60
2022-10-08 01:55:00,,0836.8,5.00,0.00,26.2,24.6,00.0,35.1,28.1,22.9,-000.4,0012.47,0009.20,0008.65
2022-10-08 01:56:00,,0836.8,4.99,0.00,26.2,24.7,00.0,35.1,28.1,22.9,-000.2,0013.18,0009.24,0008.72
2022-10-08 01:57:00,,0836.8,5.01,0.00,26.2,24.7,00.0,35.1,28.1,22.9,-000.4,0014.06,0009.28,0008.76
2022-10-08 01:58:00,,0836.8,4.99,0.00,26.2,24.8,00.0,35.1,28.1,22.9,-000.5,0014.21,0009.33,0008.82
2022-10-08 01:59:00,,0836.8,5.00,0.00,26.3,24.8,00.0,35.1,28.1,22.9,-000.6,0014.11,0009.32,0008.84
